Location: De Har
(53.3413°N, 6.6858°E)
Time: 20:59:30
(UTC+00:00)

Cosmos 1238 Rocket - Pass Details

Date: 22 April 2026
Orbit: 352 x 699 km, 82.9° (Epoch: 21 May)

Event Time Altitude Azimuth Distance (km) Brightness Sun altitude
Exits shadow 02:16:41 15° 152° (SSE) 1,094 4.1 -15.7°
Maximum altitude 02:18:40 33° 93° (E) 652 3.6 -15.5°
Drops below altitude 10° 02:21:27 10° 26° (NNE) 1,428 6.2 -15.2°
Sets 02:23:38 0° 17° (NNE) 2,338 7.2 -15.0°
